TimeIDT,TemperatureF,Dew PointF,Humidity,Sea Level PressureIn,VisibilityMPH,Wind Direction,Wind SpeedMPH,Gust SpeedMPH,PrecipitationIn,Events,Conditions,WindDirDegrees,DateUTC
3:00 AM,85,63,38,29.68,,NNE,5.8,,,,,20,2013-08-19 00:00:00
5:50 AM,82.4,59.0,45,29.71,-9999.0,NE,6.9,-,N/A,,Clear,40,2013-08-19 02:50:00
6:50 AM,80.6,59.0,48,29.74,-9999.0,NE,8.1,-,N/A,,Clear,50,2013-08-19 03:50:00
7:50 AM,84.2,59.0,42,29.74,-9999.0,NE,11.5,-,N/A,,Clear,50,2013-08-19 04:50:00
8:50 AM,86.0,57.2,37,29.74,-9999.0,NE,17.3,-,N/A,,Clear,50,2013-08-19 05:50:00
9:00 AM,88,58,26,29.73,16,NE,6.9,,,,,40,2013-08-19 06:00:00
9:50 AM,89.6,60.8,38,29.74,-9999.0,NE,19.6,-,N/A,,Clear,40,2013-08-19 06:50:00
10:50 AM,91.4,59.0,34,29.71,-9999.0,NE,18.4,-,N/A,,Clear,50,2013-08-19 07:50:00
11:50 AM,93.2,57.2,30,29.71,-9999.0,NE,18.4,-,N/A,,Clear,50,2013-08-19 08:50:00
12:50 PM,96.8,55.4,25,29.68,-9999.0,NE,19.6,-,N/A,,Clear,40,2013-08-19 09:50:00
1:50 PM,98.6,55.4,24,29.65,-9999.0,NE,18.4,-,N/A,,Clear,40,2013-08-19 10:50:00
2:50 PM,100.4,53.6,21,29.62,-9999.0,NE,19.6,-,N/A,,Clear,40,2013-08-19 11:50:00
3:00 PM,101,52,12,29.62,16,NNE,8.1,,,,,30,2013-08-19 12:00:00
3:50 PM,102.2,53.6,20,29.62,-9999.0,NE,18.4,-,N/A,,Clear,40,2013-08-19 12:50:00
4:50 PM,102.2,53.6,20,29.62,-9999.0,NE,18.4,-,N/A,,Clear,40,2013-08-19 13:50:00
5:50 PM,102.2,53.6,20,29.59,-9999.0,NE,18.4,-,N/A,,Clear,40,2013-08-19 14:50:00
6:50 PM,100.4,53.6,21,29.62,-9999.0,NE,17.3,-,N/A,,Clear,40,2013-08-19 15:50:00
7:50 PM,98.6,53.6,22,29.65,-9999.0,NNE,12.7,-,N/A,,Clear,20,2013-08-19 16:50:00
8:50 PM,96.8,53.6,23,29.65,-9999.0,North,10.4,-,N/A,,Clear,360,2013-08-19 17:50:00
9:50 PM,95.0,57.2,28,29.68,-9999.0,NNW,10.4,-,N/A,,Clear,340,2013-08-19 18:50:00
10:50 PM,93.2,57.2,30,29.68,-9999.0,NNE,8.1,-,N/A,,Clear,20,2013-08-19 19:50:00